Stockton, CA

11:29 AM PDT on October 18, 2017 (GMT -0700)
Stockton Metro

Weather History for KSCK - July, 2013

Change the Weather History Date:

Friday, July 5, 2013

  Actual Average Record
Temperature  
Mean Temperature 78 °F -  
Max Temperature 90 °F 93 °F 110 °F (2007)
Min Temperature 65 °F 60 °F 49 °F (1955)
Degree Days  
Heating Degree Days 0 0  
Month to date heating degree days 0 0  
Since 1 June heating degree days 0 7  
Since 1 July heating degree days 0 0  
Cooling Degree Days 13 11  
Month to date cooling degree days 103 55  
Year to date cooling degree days 565 404  
Since 1 June cooling degree days 384 285  
Growing Degree Days 27 (Base 50)    
Moisture  
Dew Point 50 °F    
Average Humidity 40    
Maximum Humidity 56    
Minimum Humidity 24    
Precipitation  
Precipitation 0.00 in 0.00 in 0.01 in (2012)
Month to date precipitation 0.00 0.00  
Year to date precipitation 2.88 9.03  
Since 1 July precipitation 0.00  
Snow  
Snow 0.00 in - - ()
Month to date snowfall 0.0  
Since 1 June snowfall 0.0  
Since 1 July snowfall 0.0  
Snow Depth -    
Sea Level Pressure  
Sea Level Pressure 29.68 in    
Wind  
Wind Speed 15 mph (West)    
Max Wind Speed 25 mph    
Max Gust Speed 31 mph    
Visibility 10 miles    
Events      
T = Trace of Precipitation, MM = Missing Value Source: NWS Daily Summary

Daily Weather History Graph

Daily Weather History Graph

Search for Another Location

Airport or City:

Trip Planner

Search our weather history database for the weather conditions in past years. The results will help you decide how hot, cold, wet, or windy it might be!

Date:

Astronomy

Jul. 05, 2013 Rise Set
Actual Time 5:48 AM PDT 8:30 PM PDT
Civil Twilight 5:17 AM PDT 9:01 PM PDT
Nautical Twilight 4:38 AM PDT 9:40 PM PDT
Astronomical Twilight 3:54 AM PDT 10:23 PM PDT
Moon 3:50 AM PDT (7/5) 6:30 PM PDT (7/5)
Length of Visible Light 15h 43m
Length of Day
14h 41m
Waning Crescent, 6% of the Moon is Illuminated
Jul 5
Waning Crescent
Jul 8
New
Jul 15
First Quarter
Jul 22
Full
Jul 29
Last Quarter

Hourly Weather History & Observations

Time (PDT) Temp. Heat Index Dew Point Humidity Pressure Visibility Wind Dir Wind Speed Gust Speed Precip Events Conditions
12:55 AM 79.0 °F - 46.0 °F 31% 29.65 in 10.0 mi West 12.7 mph - N/A   Clear
1:55 AM 77.0 °F - 45.0 °F 32% 29.65 in 10.0 mi West 16.1 mph - N/A   Clear
2:55 AM 73.9 °F - 43.0 °F 33% 29.64 in 10.0 mi West 17.3 mph - N/A   Clear
3:55 AM 72.0 °F - 43.0 °F 35% 29.65 in 10.0 mi WNW 16.1 mph - N/A   Clear
4:55 AM 68.0 °F - 45.0 °F 43% 29.66 in 10.0 mi West 10.4 mph - N/A   Clear
5:55 AM 66.0 °F - 46.9 °F 50% 29.67 in 10.0 mi West 17.3 mph - N/A   Clear
6:55 AM 64.9 °F - 48.9 °F 56% 29.70 in 10.0 mi West 10.4 mph - N/A   Clear
7:55 AM 68.0 °F - 50.0 °F 52% 29.71 in 10.0 mi West 17.3 mph - N/A   Clear
8:55 AM 71.1 °F - 51.1 °F 49% 29.72 in 10.0 mi West 21.9 mph - N/A   Clear
9:55 AM 75.0 °F - 52.0 °F 44% 29.72 in 10.0 mi West 20.7 mph 25.3 mph N/A   Clear
10:55 AM 78.1 °F - 52.0 °F 40% 29.72 in 10.0 mi West 17.3 mph - N/A   Clear
11:55 AM 82.0 °F - 51.1 °F 34% 29.72 in 10.0 mi West 18.4 mph - N/A   Clear
12:55 PM 82.9 °F - 51.1 °F 33% 29.71 in 10.0 mi WNW 17.3 mph - N/A   Clear
1:55 PM 84.9 °F - 50.0 °F 30% 29.70 in 10.0 mi WNW 19.6 mph 26.5 mph N/A   Clear
2:55 PM 87.1 °F - 48.0 °F 26% 29.69 in 10.0 mi WNW 16.1 mph 25.3 mph N/A   Clear
3:55 PM 89.1 °F - 48.9 °F 25% 29.66 in 10.0 mi WNW 17.3 mph 20.7 mph N/A   Clear
4:55 PM 88.0 °F - 51.1 °F 28% 29.65 in 10.0 mi West 17.3 mph 25.3 mph N/A   Clear
5:55 PM 87.1 °F 84.9 °F 53.1 °F 31% 29.65 in 10.0 mi West 17.3 mph - N/A   Clear
6:55 PM 82.9 °F 81.9 °F 54.0 °F 37% 29.65 in 10.0 mi West 18.4 mph 24.2 mph N/A   Clear
7:55 PM 77.0 °F - 54.0 °F 45% 29.66 in 10.0 mi West 17.3 mph 20.7 mph N/A   Clear
8:55 PM 72.0 °F - 52.0 °F 49% 29.67 in 10.0 mi West 17.3 mph - N/A   Clear
9:55 PM 68.0 °F - 51.1 °F 55% 29.70 in 10.0 mi WNW 11.5 mph - N/A   Clear
10:55 PM 66.9 °F - 51.1 °F 57% 29.71 in 10.0 mi WNW 10.4 mph - N/A   Clear
11:55 PM 64.9 °F - 52.0 °F 63% 29.71 in 10.0 mi WNW 10.4 mph - N/A   Clear